Regional Weather Roundup
Issued by NWS

Home | Current Version | Previous Version | Text Only | Print | Product List | Glossary On
Versions: 1 2 3 4 5 6 7 8 9 10 11 12 13 14 15 16 17 18 19 20 21 22 23 24 25 26 27 28 29 30 31 32 33 34 35 36 37 38 39 40 41 42 43 44 45 46 47 48 49 50
000
ASUS44 KBMX 271110
RWRAL

ALABAMA REGIONAL WEATHER ROUNDUP
NATIONAL WEATHER SERVICE BIRMINGHAM AL
600 AM CDT WED JUL 27 2016

NOTE: "FAIR" INDICATES FEW OR NO CLOUDS BELOW 12,000 FEET
WITH NO SIGNIFICANT WEATHER AND/OR OBSTRUCTIONS TO VISIBILITY.

THE REMARK "TC" DENOTES TEMPERATURE IN DEGREES CELSIUS.

ALZ001>011-014-016>018-020-271200-
NORTH ALABAMA

CITY           SKY/WX    TMP DP  RH WIND       PRES   REMARKS
MUSCLE SHOALS  PTCLDY    76  72  87 CALM      30.02R
HUNTSVILLE     PTCLDY    77  70  79 CALM      30.03R
DECATUR        MOCLDY    75  73  93 SE3       30.02R
HALEYVILLE     LGT RAIN  74  73  97 S3        30.05R FOG
GADSDEN        CLOUDY    76  74  93 CALM        N/A
$$

ALZ012-013-022-023-030>036-040>044-271200-
WEST CENTRAL ALABAMA

CITY           SKY/WX    TMP DP  RH WIND       PRES   REMARKS
TUSCALOOSA     CLOUDY    77  75  93 S5        30.00R
$$

ALZ015-024>027-033>036-040>044-271200-
CENTRAL ALABAMA

CITY           SKY/WX    TMP DP  RH WIND       PRES   REMARKS
BIRMINGHAM     CLOUDY    78  72  81 S7        30.05R
MONTGOMERY     PTCLDY    76  72  87 S3        30.02S
SHELBY CO ARPT CLOUDY    77  72  84 S5        30.03R
MAXWELL AFB    PTCLDY    75  73  94 S2        30.02R
GREENVILLE     CLOUDY    75  72  90 S5        30.03R FOG
$$

ALZ019-021-028-029-037-038-045>048-271200-
EAST CENTRAL ALABAMA

CITY           SKY/WX    TMP DP  RH WIND       PRES   REMARKS
ANNISTON       MOCLDY    76  72  87 CALM      30.04R
ALEXANDER CITY CLOUDY    75  75 100 SW5       30.05
AUBURN         CLOUDY    74  73  97 S8        30.07R
$$

ALZ051>064-271200-
SOUTHWEST ALABAMA

CITY           SKY/WX    TMP DP  RH WIND       PRES   REMARKS
MOBILE         PTCLDY    74  72  93 CALM      30.02R
BROOKLEY FIELD CLEAR     75  74  96 S3        30.02S
EVERGREEN      MOCLDY    73  72  96 CALM      30.04R
$$

ALZ049-050-065>069-271200-
SOUTHEAST ALABAMA

CITY           SKY/WX    TMP DP  RH WIND       PRES   REMARKS
DOTHAN         CLEAR     74  73  97 S5        30.08R
OZARK          CLEAR     73  73 100 S2        30.04R
TROY           CLEAR     72  72 100 CALM      30.05R FOG
EUFAULA        FAIR      74  71  91 CALM      30.04R
$$



USA.gov is the U.S. government's official web portal to all federal, state and local government web resources and services.